Location: Larrial
(48.2758°N, 4.5331°W)
Time: 04:24:38
(UTC+00:00)

STARLINK-1200 - Pass Details

Date: 09 April 2020
Orbit: 549 x 550 km, 53.0° (Epoch: 29 May)

Event Time Altitude Azimuth Distance (km) Brightness Sun altitude
Rises 21:21:26 0° 295° (WNW) 2,726 8.5 -21.5°
Reaches altitude 10° 21:23:43 10° 291° (WNW) 1,829 7.2 -21.8°
Maximum altitude 21:27:45 52° 215° (SW) 692 4.0 -22.2°
Enters shadow 21:27:46 52° 214° (SW) 692 4.0 -22.2°
